📊 Raw Sensor Data
Showing records 42701 to 42725 of 85,004 total
| ID | Distance (ft) | Battery V | Battery A | Int Temp (°F) | Int Humid (%) | Ext Temp (°F) | Solar V | RSSI | SNR | Time Stamp |
|---|---|---|---|---|---|---|---|---|---|---|
| 42316 | 14.9 | 3.94 | -5 | 52 | 44 | 54 | 0.00 | -74 | 8 | 06/02/2025 12:15 AM |
| 42315 | 15.0 | 3.94 | -5 | 52 | 44 | 54 | 0.00 | -74 | 8 | 06/02/2025 12:00 AM |
| 42314 | 14.9 | 3.94 | -5 | 52 | 45 | 54 | 0.00 | -71 | 8 | 06/01/2025 11:45 PM |
| 42313 | 14.9 | 4.00 | -5 | 53 | 45 | 54 | 0.00 | -73 | 7 | 06/01/2025 11:30 PM |
| 42312 | 15.0 | 3.94 | -5 | 54 | 45 | 55 | 0.00 | -72 | 7 | 06/01/2025 11:15 PM |
| 42311 | 15.0 | 3.94 | -5 | 54 | 45 | 56 | 0.00 | -71 | 8 | 06/01/2025 11:00 PM |
| 42310 | 15.0 | 4.00 | -5 | 55 | 45 | 56 | 0.00 | -72 | 7 | 06/01/2025 10:45 PM |
| 42309 | 15.0 | 3.94 | -5 | 56 | 46 | 57 | 0.00 | -74 | 7 | 06/01/2025 10:30 PM |
| 42308 | 15.0 | 3.94 | -5 | 57 | 46 | 58 | 0.00 | -74 | 7 | 06/01/2025 10:15 PM |
| 42307 | 15.0 | 3.94 | -5 | 57 | 46 | 58 | 0.00 | -74 | 8 | 06/01/2025 10:00 PM |
| 42306 | 15.0 | 3.94 | -5 | 58 | 47 | 59 | 0.00 | -74 | 7 | 06/01/2025 09:45 PM |
| 42305 | 15.0 | 3.95 | -5 | 59 | 48 | 59 | 0.00 | -74 | 8 | 06/01/2025 09:30 PM |
| 42304 | 15.0 | 3.95 | -5 | 60 | 49 | 61 | 0.00 | -74 | 8 | 06/01/2025 09:15 PM |
| 42303 | 15.1 | 3.95 | -5 | 61 | 50 | 61 | 0.00 | -73 | 8 | 06/01/2025 09:00 PM |
| 42302 | 15.2 | 3.95 | -5 | 62 | 51 | 62 | 0.10 | -72 | 7 | 06/01/2025 08:45 PM |
| 42301 | 15.2 | 3.95 | -5 | 64 | 53 | 63 | 1.90 | -72 | 8 | 06/01/2025 08:30 PM |
| 42300 | 15.2 | 3.94 | -24 | 67 | 53 | 64 | 4.20 | -74 | 8 | 06/01/2025 08:15 PM |
| 42299 | 15.2 | 4.02 | 0 | 71 | 53 | 67 | 4.50 | -72 | 8 | 06/01/2025 08:00 PM |
| 42298 | 15.3 | 3.97 | 0 | 74 | 52 | 70 | 4.50 | -74 | 7 | 06/01/2025 07:45 PM |
| 42297 | 15.3 | 4.04 | 10 | 77 | 52 | 71 | 4.50 | -74 | 8 | 06/01/2025 07:30 PM |
| 42296 | 15.3 | 4.05 | -5 | 80 | 52 | 73 | 4.50 | -76 | 7 | 06/01/2025 07:15 PM |
| 42295 | 15.4 | 4.01 | 14 | 82 | 51 | 75 | 4.50 | -72 | 8 | 06/01/2025 07:00 PM |
| 42294 | 15.4 | 4.05 | 41 | 85 | 50 | 77 | 4.50 | -73 | 8 | 06/01/2025 06:45 PM |
| 42293 | 15.4 | 3.99 | 0 | 86 | 49 | 79 | 5.10 | -73 | 7 | 06/01/2025 06:30 PM |
| 42292 | 15.4 | 4.05 | 0 | 86 | 49 | 79 | 5.10 | -75 | 8 | 06/01/2025 06:15 PM |